Вернуться в каталог

NOAA 16 DEB

АктивенSSO
NORAD 41296·DEBRIS·🇺🇸 United States

Запущен Sep 21, 2000 с Vandenberg Space Force Base

Loading…

Ближайшие Пролёты (ближайшие 24 часа)

TLE

СвежийSource: Space-Track

Эпоха: Sep 13, 2026, 20:52 UTC

1 41296U 00055GY  26256.87009413  .00001724  00000-0  81282-3 0  9993
2 41296  98.7094 312.9648 0024109 266.8819  92.9600 14.21010366551540

Отслеживайте NOAA 16 DEB в реальном времени с AllMySat

Download on the App Store